| time (UTC) | temp F | wind direction | speed knots | gust knots | rain 1hr in | rain 24hr in | rain mn in | humidity % | barometer mb |
| 20260509213000 | 90 | 17 | 0.9 | 3.5 | 0.00 | 0.03 | 0.03 | 55 | 1007.9 |
| 20260509212500 | 90 | 46 | 0.9 | 3.5 | 0.00 | 0.03 | 0.03 | 54 | 1007.9 |
| 20260509212003 | 89 | 212 | 0.9 | 3.5 | 0.00 | 0.03 | 0.03 | 56 | 1008.0 |
| 20260509211502 | 88 | 201 | 0.9 | 3.5 | 0.00 | 0.03 | 0.03 | 56 | 1008.1 |
| 20260509211002 | 88 | 37 | 1.7 | 5.2 | 0.00 | 0.03 | 0.03 | 56 | 1008.2 |
| 20260509210502 | 88 | 28 | 1.7 | 5.2 | 0.00 | 0.03 | 0.03 | 57 | 1008.3 |
| 20260509210246 | 88 | 156 | 0.9 | 3.5 | 0.00 | 0.03 | 0.03 | 56 | 1008.3 |
| 20260509205500 | 87 | 320 | 0.9 | 4.3 | 0.00 | 0.03 | 0.03 | 58 | 1008.4 |
| 20260509205002 | 87 | 50 | 0.9 | 5.2 | 0.00 | 0.03 | 0.03 | 57 | 1008.5 |
| 20260509204502 | 87 | 37 | 0.9 | 5.2 | 0.00 | 0.03 | 0.03 | 56 | 1008.6 |
| 20260509204001 | 87 | 164 | 0.9 | 3.5 | 0.00 | 0.03 | 0.03 | 55 | 1008.7 |
| 20260509203501 | 87 | 114 | 1.7 | 4.3 | 0.00 | 0.03 | 0.03 | 56 | 1008.7 |
| 20260509203004 | 86 | 149 | 1.7 | 4.3 | 0.00 | 0.03 | 0.03 | 56 | 1008.7 |
| 20260509202502 | 86 | 0 | 1.7 | 3.5 | 0.00 | 0.03 | 0.03 | 56 | 1008.8 |
| 20260509202002 | 85 | 81 | 1.7 | 4.3 | 0.00 | 0.03 | 0.03 | 58 | 1009.0 |
| 20260509201502 | 84 | 284 | 1.7 | 7.8 | 0.00 | 0.03 | 0.03 | 59 | 1009.1 |
| 20260509201243 | 84 | 152 | 1.7 | 7.8 | 0.00 | 0.03 | 0.03 | 57 | 1009.3 |
| 20260509200501 | 83 | 162 | 1.7 | 7.0 | 0.00 | 0.03 | 0.03 | 58 | 1009.4 |
| 20260509200001 | 84 | 310 | 2.6 | 7.8 | 0.00 | 0.03 | 0.03 | 58 | 1009.6 |
| 20260509195501 | 86 | 226 | 1.7 | 7.8 | 0.00 | 0.03 | 0.03 | 54 | 1009.8 |
| 20260509195000 | 87 | 214 | 1.7 | 4.3 | 0.00 | 0.03 | 0.03 | 60 | 1009.8 |
| 20260509194501 | 87 | 87 | 1.7 | 4.3 | 0.00 | 0.03 | 0.03 | 60 | 1009.7 |
| 20260509194001 | 87 | 53 | 1.7 | 4.3 | 0.00 | 0.03 | 0.03 | 60 | 1009.5 |
| 20260509193500 | 88 | 51 | 1.7 | 4.3 | 0.00 | 0.03 | 0.03 | 62 | 1009.5 |
| 20260509193002 | 88 | 0 | 1.7 | 5.2 | 0.00 | 0.03 | 0.03 | 60 | 1009.5 |
| 20260509192501 | 88 | 65 | 1.7 | 5.2 | 0.00 | 0.03 | 0.03 | 61 | 1009.4 |
| 20260509192002 | 87 | 73 | 1.7 | 4.3 | 0.00 | 0.03 | 0.03 | 61 | 1009.3 |
| 20260509191744 | 87 | 325 | 1.7 | 4.3 | 0.00 | 0.03 | 0.03 | 63 | 1009.3 |
| 20260509191001 | 87 | 131 | 1.7 | 7.0 | 0.00 | 0.03 | 0.03 | 64 | 1009.3 |
| 20260509190741 | 86 | 192 | 1.7 | 7.0 | 0.00 | 0.03 | 0.03 | 65 | 1009.3 |
| 20260509190242 | 86 | 23 | 1.7 | 5.2 | 0.00 | 0.03 | 0.03 | 67 | 1009.4 |
| 20260509185501 | 86 | 66 | 1.7 | 6.1 | 0.00 | 0.03 | 0.03 | 65 | 1009.5 |
| 20260509185001 | 86 | 72 | 1.7 | 6.1 | 0.00 | 0.03 | 0.03 | 67 | 1009.7 |
| 20260509184501 | 86 | 43 | 1.7 | 6.1 | 0.00 | 0.03 | 0.03 | 67 | 1009.7 |
| 20260509184002 | 86 | 259 | 1.7 | 5.2 | 0.00 | 0.03 | 0.03 | 68 | 1009.8 |
| 20260509183502 | 86 | 359 | 1.7 | 7.0 | 0.00 | 0.03 | 0.03 | 68 | 1009.8 |
| 20260509183241 | 86 | 245 | 1.7 | 7.0 | 0.00 | 0.03 | 0.03 | 68 | 1009.9 |
| 20260509182501 | 87 | 29 | 1.7 | 7.0 | 0.00 | 0.03 | 0.03 | 67 | 1009.9 |
| 20260509182001 | 88 | 26 | 0.9 | 4.3 | 0.00 | 0.03 | 0.03 | 64 | 1010.0 |
| 20260509181503 | 88 | 248 | 0.9 | 3.5 | 0.00 | 0.03 | 0.03 | 66 | 1010.1 |
| 20260509181000 | 87 | 0 | 0.9 | 3.5 | 0.00 | 0.03 | 0.03 | 67 | 1010.1 |
| 20260509180501 | 86 | 201 | 1.7 | 5.2 | 0.00 | 0.03 | 0.03 | 67 | 1010.2 |
| 20260509180002 | 86 | 230 | 1.7 | 5.2 | 0.00 | 0.03 | 0.03 | 68 | 1010.1 |
| 20260509175501 | 86 | 259 | 0.9 | 4.3 | 0.00 | 0.03 | 0.03 | 69 | 1010.2 |
| 20260509175002 | 86 | 299 | 0.9 | 3.5 | 0.00 | 0.03 | 0.03 | 71 | 1010.3 |
| 20260509174742 | 85 | 98 | 1.7 | 3.5 | 0.00 | 0.03 | 0.03 | 70 | 1010.3 |
| 20260509174002 | 85 | 280 | 1.7 | 3.5 | 0.00 | 0.03 | 0.03 | 69 | 1010.3 |
| 20260509173501 | 85 | 271 | 0.9 | 3.5 | 0.00 | 0.03 | 0.03 | 70 | 1010.4 |
| 20260509173002 | 85 | 224 | 0.9 | 3.5 | 0.00 | 0.03 | 0.03 | 72 | 1010.5 |
| 20260509172500 | 85 | 232 | 0.9 | 3.5 | 0.00 | 0.03 | 0.03 | 71 | 1010.5 |
| 20260509172001 | 85 | 227 | 0.9 | 2.6 | 0.00 | 0.03 | 0.03 | 71 | 1010.5 |
| 20260509171502 | 85 | 263 | 0.9 | 3.5 | 0.00 | 0.03 | 0.03 | 70 | 1010.7 |
| 20260509171002 | 85 | 58 | 0.9 | 4.3 | 0.00 | 0.03 | 0.03 | 70 | 1010.7 |
| 20260509170502 | 85 | 236 | 1.7 | 7.0 | 0.00 | 0.03 | 0.03 | 72 | 1010.8 |
| 20260509170240 | 84 | 125 | 1.7 | 7.0 | 0.00 | 0.03 | 0.03 | 74 | 1010.9 |
| 20260509165500 | 84 | 188 | 1.7 | 5.2 | 0.00 | 0.03 | 0.03 | 75 | 1011.0 |
| 20260509165001 | 84 | 237 | 0.9 | 5.2 | 0.00 | 0.03 | 0.03 | 73 | 1010.8 |
| 20260509164502 | 85 | 205 | 0.9 | 3.5 | 0.00 | 0.03 | 0.03 | 71 | 1010.8 |
| 20260509164001 | 84 | 65 | 0.9 | 4.3 | 0.00 | 0.03 | 0.03 | 73 | 1010.8 |
| 20260509163501 | 84 | 0 | 1.7 | 5.2 | 0.00 | 0.03 | 0.03 | 73 | 1010.9 |
| 20260509163000 | 83 | 0 | 1.7 | 5.2 | 0.00 | 0.03 | 0.03 | 76 | 1011.0 |
| 20260509162501 | 83 | 230 | 1.7 | 5.2 | 0.00 | 0.03 | 0.03 | 77 | 1011.1 |
| 20260509162001 | 82 | 240 | 2.6 | 8.7 | 0.00 | 0.03 | 0.03 | 76 | 1011.0 |
| 20260509161501 | 82 | 254 | 3.5 | 8.7 | 0.00 | 0.03 | 0.03 | 79 | 1011.0 |
| 20260509161001 | 82 | 218 | 1.7 | 6.1 | 0.00 | 0.03 | 0.03 | 79 | 1010.9 |
| 20260509160501 | 81 | 252 | 1.7 | 6.1 | 0.00 | 0.03 | 0.03 | 81 | 1010.9 |
| 20260509160000 | 80 | 255 | 2.6 | 10.4 | 0.00 | 0.03 | 0.03 | 81 | 1010.9 |
| 20260509155501 | 81 | 256 | 2.6 | 10.4 | 0.00 | 0.03 | 0.03 | 81 | 1010.9 |
| 20260509155244 | 81 | 190 | 2.6 | 6.1 | 0.00 | 0.03 | 0.03 | 82 | 1010.8 |
| 20260509154502 | 80 | 238 | 2.6 | 7.8 | 0.00 | 0.03 | 0.03 | 82 | 1010.7 |
| 20260509154002 | 80 | 290 | 3.5 | 7.8 | 0.00 | 0.03 | 0.03 | 83 | 1010.4 |
| 20260509153502 | 79 | 205 | 3.5 | 6.1 | 0.00 | 0.03 | 0.03 | 83 | 1010.3 |
| 20260509153002 | 79 | 135 | 3.5 | 7.0 | 0.00 | 0.03 | 0.03 | 84 | 1010.3 |
| 20260509152502 | 79 | 219 | 2.6 | 7.0 | 0.00 | 0.03 | 0.03 | 85 | 1010.4 |
| 20260509152001 | 79 | 241 | 2.6 | 7.0 | 0.00 | 0.03 | 0.03 | 85 | 1010.3 |
| 20260509151502 | 78 | 209 | 2.6 | 7.0 | 0.00 | 0.03 | 0.03 | 86 | 1010.3 |
| 20260509151001 | 78 | 254 | 2.6 | 7.0 | 0.00 | 0.03 | 0.03 | 86 | 1010.2 |
| 20260509150502 | 78 | 273 | 2.6 | 7.0 | 0.00 | 0.03 | 0.03 | 86 | 1010.1 |
| 20260509150000 | 79 | 193 | 2.6 | 7.0 | 0.00 | 0.03 | 0.03 | 85 | 1010.1 |
| 20260509145501 | 79 | 222 | 2.6 | 7.0 | 0.00 | 0.03 | 0.03 | 86 | 1010.1 |
| 20260509145000 | 79 | 284 | 1.7 | 5.2 | 0.00 | 0.03 | 0.03 | 87 | 1010.1 |
| 20260509144501 | 79 | 329 | 1.7 | 5.2 | 0.00 | 0.03 | 0.03 | 86 | 1010.1 |
| 20260509144002 | 79 | 344 | 1.7 | 6.1 | 0.00 | 0.03 | 0.03 | 85 | 1010.0 |
| 20260509143501 | 79 | 273 | 2.6 | 6.1 | 0.00 | 0.03 | 0.03 | 85 | 1010.0 |
| 20260509143002 | 79 | 146 | 1.7 | 5.2 | 0.00 | 0.03 | 0.03 | 85 | 1009.9 |
| 20260509142502 | 79 | 292 | 1.7 | 6.1 | 0.00 | 0.03 | 0.03 | 85 | 1009.7 |
| 20260509142001 | 78 | 298 | 2.6 | 6.1 | 0.00 | 0.03 | 0.03 | 86 | 1009.8 |
| 20260509141501 | 78 | 256 | 2.6 | 5.2 | 0.00 | 0.03 | 0.03 | 86 | 1009.7 |
| 20260509141002 | 78 | 152 | 1.7 | 4.3 | 0.00 | 0.03 | 0.03 | 87 | 1009.6 |
| 20260509140748 | 78 | 257 | 0.9 | 4.3 | 0.00 | 0.03 | 0.03 | 88 | 1009.6 |
| 20260509140002 | 77 | 230 | 1.7 | 2.6 | 0.00 | 0.03 | 0.03 | 90 | 1009.6 |
| 20260509135501 | 76 | 231 | 1.7 | 2.6 | 0.00 | 0.03 | 0.03 | 90 | 1009.5 |
| 20260509135003 | 75 | 189 | 1.7 | 4.3 | 0.00 | 0.03 | 0.03 | 93 | 1009.4 |
| 20260509134502 | 74 | 111 | 1.7 | 4.3 | 0.00 | 0.03 | 0.03 | 96 | 1009.5 |
| 20260509134002 | 74 | 286 | 1.7 | 3.5 | 0.00 | 0.03 | 0.03 | 98 | 1009.6 |
| 20260509133502 | 73 | 348 | 1.7 | 3.5 | 0.00 | 0.03 | 0.03 | 99 | 1009.7 |
| 20260509133002 | 73 | 216 | 1.7 | 4.3 | 0.00 | 0.03 | 0.03 | 99 | 1009.8 |
| 20260509132745 | 73 | 307 | 1.7 | 4.3 | 0.00 | 0.03 | 0.03 | 100 | 1009.7 |
| 20260509132232 | 72 | 247 | 1.7 | 5.2 | 0.00 | 0.03 | 0.03 | 100 | 1009.7 |
| 20260509131501 | 72 | 236 | 2.6 | 5.2 | 0.00 | 0.03 | 0.03 | 100 | 1009.8 |
| 20260509131245 | 72 | 253 | 2.6 | 4.3 | 0.00 | 0.03 | 0.03 | 99 | 1009.9 |
| 20260509130505 | 72 | 245 | 1.7 | 4.3 | 0.00 | 0.03 | 0.03 | 99 | 1010.0 |
| 20260509130225 | 72 | 206 | 1.7 | 3.5 | 0.00 | 0.03 | 0.03 | 99 | 1010.0 |
| 20260509125501 | 72 | 202 | 1.7 | 2.6 | 0.00 | 0.03 | 0.03 | 99 | 1010.0 |
| 20260509125228 | 72 | 238 | 1.7 | 2.6 | 0.00 | 0.03 | 0.03 | 99 | 1010.0 |
| 20260509124724 | 72 | 252 | 0.9 | 2.6 | 0.00 | 0.03 | 0.03 | 99 | 1009.9 |
| 20260509124001 | 71 | 253 | 0.9 | 1.7 | 0.00 | 0.03 | 0.03 | 99 | 1009.9 |
| 20260509123501 | 71 | 228 | 0.0 | 0.9 | 0.00 | 0.03 | 0.03 | 99 | 1009.9 |
| 20260509123002 | 71 | 0 | 0.0 | 0.9 | 0.00 | 0.03 | 0.03 | 99 | 1010.0 |
| 20260509122730 | 71 | 0 | 0.0 | 0.9 | 0.00 | 0.03 | 0.03 | 99 | 1009.9 |
| 20260509122002 | 71 | 0 | 0.0 | 0.9 | 0.00 | 0.03 | 0.03 | 99 | 1009.9 |
| 20260509121727 | 71 | 318 | 0.0 | 1.7 | 0.00 | 0.03 | 0.03 | 99 | 1009.9 |
| 20260509121001 | 71 | 0 | 0.9 | 1.7 | 0.00 | 0.03 | 0.03 | 99 | 1009.9 |
| 20260509120500 | 71 | 250 | 0.9 | 1.7 | 0.00 | 0.03 | 0.03 | 99 | 1009.9 |
| 20260509120001 | 71 | 261 | 0.0 | 0.9 | 0.00 | 0.03 | 0.03 | 99 | 1009.9 |
| 20260509115725 | 71 | 257 | 0.0 | 0.9 | 0.00 | 0.03 | 0.03 | 99 | 1010.0 |
| 20260509115002 | 71 | 0 | 0.0 | 0.9 | 0.00 | 0.03 | 0.03 | 99 | 1010.1 |
| 20260509114501 | 71 | 0 | 0.0 | 0.9 | 0.00 | 0.03 | 0.03 | 99 | 1010.3 |
| 20260509114001 | 72 | 198 | 0.0 | 0.9 | 0.00 | 0.03 | 0.03 | 99 | 1010.7 |
| 20260509113501 | 72 | 305 | 0.0 | 0.9 | 0.00 | 0.03 | 0.03 | 99 | 1010.4 |
| 20260509113001 | 72 | 0 | 0.0 | 0.9 | 0.03 | 0.03 | 0.03 | 99 | 1010.5 |
| 20260509112729 | 72 | 325 | 0.0 | 0.9 | 0.03 | 0.03 | 0.03 | 99 | 1011.0 |
| 20260509112002 | 72 | 289 | 0.0 | 1.7 | 0.03 | 0.03 | 0.03 | 99 | 1011.1 |
| 20260509111503 | 72 | 312 | 0.9 | 1.7 | 0.03 | 0.03 | 0.03 | 99 | 1011.2 |
| 20260509111459 | 72 | 218 | 0.9 | 1.7 | 0.03 | 0.03 | 0.03 | 99 | 1011.4 |
| 20260509110501 | 72 | 0 | 0.0 | 0.9 | 0.03 | 0.03 | 0.03 | 99 | 1011.4 |
| 20260509110228 | 72 | 190 | 0.0 | 0.9 | 0.03 | 0.03 | 0.03 | 99 | 1011.3 |
| 20260509105501 | 72 | 149 | 0.0 | 0.9 | 0.03 | 0.03 | 0.03 | 99 | 1011.3 |
| 20260509105001 | 72 | 0 | 0.0 | 0.9 | 0.03 | 0.03 | 0.03 | 99 | 1011.3 |
| 20260509104502 | 72 | 50 | 0.0 | 0.9 | 0.03 | 0.03 | 0.03 | 99 | 1011.3 |
| 20260509104001 | 72 | 325 | 0.0 | 0.9 | 0.03 | 0.03 | 0.03 | 99 | 1011.2 |
| 20260509103501 | 72 | 267 | 0.0 | 0.9 | 0.03 | 0.03 | 0.02 | 99 | 1011.3 |
| 20260509103001 | 72 | 0 | 0.0 | 1.7 | 0.00 | 0.00 | 0.00 | 99 | 1011.4 |
| 20260509102500 | 72 | 0 | 0.0 | 1.7 | 0.00 | 0.00 | 0.00 | 98 | 1011.3 |
| 20260509102004 | 72 | 0 | 0.0 | 1.7 | 0.00 | 0.00 | 0.00 | 98 | 1011.3 |
| 20260509101502 | 72 | 0 | 0.9 | 1.7 | 0.00 | 0.00 | 0.00 | 98 | 1011.2 |
| 20260509101001 | 72 | 356 | 0.9 | 1.7 | 0.00 | 0.00 | 0.00 | 98 | 1011.1 |
| 20260509100501 | 72 | 148 | 0.9 | 1.7 | 0.00 | 0.00 | 0.00 | 98 | 1010.9 |
| 20260509100001 | 72 | 0 | 0.0 | 1.7 | 0.00 | 0.00 | 0.00 | 98 | 1010.8 |
| 20260509095500 | 72 | 8 | 0.0 | 0.9 | 0.00 | 0.00 | 0.00 | 98 | 1010.7 |
| 20260509095002 | 72 | 2 | 0.0 | 0.9 | 0.00 | 0.00 | 0.00 | 98 | 1010.5 |
| 20260509094723 | 72 | 46 | 0.0 | 1.7 | 0.00 | 0.00 | 0.00 | 98 | 1010.3 |
| 20260509094001 | 72 | 0 | 0.9 | 1.7 | 0.00 | 0.00 | 0.00 | 98 | 1010.1 |
| 20260509093500 | 72 | 248 | 0.9 | 1.7 | 0.00 | 0.00 | 0.00 | 98 | 1009.9 |
| 20260509093000 | 72 | 267 | 0.9 | 1.7 | 0.00 | 0.00 | 0.00 | 98 | 1009.7 |
| 20260509092501 | 72 | 287 | 0.9 | 1.7 | 0.00 | 0.00 | 0.00 | 98 | 1009.7 |
| 20260509092001 | 72 | 256 | 0.9 | 1.7 | 0.00 | 0.00 | 0.00 | 98 | 1009.7 |
| 20260509091730 | 72 | 265 | 0.0 | 0.9 | 0.00 | 0.00 | 0.00 | 98 | 1009.6 |
| 20260509091001 | 72 | 0 | 0.0 | 0.9 | 0.00 | 0.00 | 0.00 | 98 | 1009.5 |
| 20260509090500 | 72 | 238 | 0.0 | 0.9 | 0.00 | 0.00 | 0.00 | 98 | 1009.6 |
| 20260509090001 | 72 | 152 | 0.0 | 1.7 | 0.00 | 0.00 | 0.00 | 98 | 1009.6 |
| 20260509085500 | 72 | 0 | 0.0 | 1.7 | 0.00 | 0.00 | 0.00 | 98 | 1009.7 |
| 20260509085001 | 72 | 0 | 0.0 | 1.7 | 0.00 | 0.00 | 0.00 | 98 | 1009.7 |
| 20260509084501 | 72 | 197 | 0.0 | 1.7 | 0.00 | 0.00 | 0.00 | 98 | 1009.9 |
| 20260509084001 | 72 | 283 | 0.0 | 0.9 | 0.00 | 0.00 | 0.00 | 98 | 1010.1 |
| 20260509083500 | 72 | 0 | 0.0 | 0.9 | 0.00 | 0.00 | 0.00 | 98 | 1010.2 |
| 20260509083231 | 72 | 199 | 0.0 | 0.9 | 0.00 | 0.00 | 0.00 | 98 | 1010.3 |
| 20260509082500 | 72 | 0 | 0.0 | 0.9 | 0.00 | 0.00 | 0.00 | 98 | 1010.3 |
| 20260509082230 | 72 | 188 | 0.0 | 0.9 | 0.00 | 0.00 | 0.00 | 98 | 1010.2 |
| 20260509081501 | 72 | 235 | 0.0 | 0.9 | 0.00 | 0.00 | 0.00 | 98 | 1010.1 |
| 20260509081001 | 72 | 3 | 0.0 | 0.9 | 0.00 | 0.00 | 0.00 | 97 | 1009.9 |
| 20260509080501 | 72 | 243 | 0.0 | 1.7 | 0.00 | 0.00 | 0.00 | 97 | 1010.1 |
| 20260509080227 | 72 | 184 | 0.9 | 1.7 | 0.00 | 0.00 | 0.00 | 97 | 1010.3 |
| 20260509075502 | 72 | 230 | 0.9 | 1.7 | 0.00 | 0.00 | 0.00 | 97 | 1010.3 |
| 20260509075002 | 72 | 247 | 0.9 | 1.7 | 0.00 | 0.00 | 0.00 | 97 | 1010.2 |
| 20260509074503 | 72 | 240 | 0.9 | 1.7 | 0.00 | 0.00 | 0.00 | 97 | 1010.3 |
| 20260509074001 | 72 | 183 | 0.0 | 1.7 | 0.00 | 0.00 | 0.00 | 97 | 1010.4 |
| 20260509073505 | 72 | 294 | 0.0 | 0.9 | 0.00 | 0.00 | 0.00 | 97 | 1010.5 |
| 20260509073002 | 72 | 0 | 0.0 | 1.7 | 0.00 | 0.00 | 0.00 | 97 | 1010.5 |
| 20260509072501 | 72 | 187 | 0.9 | 1.7 | 0.00 | 0.00 | 0.00 | 97 | 1010.5 |
| 20260509072001 | 72 | 139 | 0.9 | 1.7 | 0.00 | 0.00 | 0.00 | 97 | 1010.8 |
| 20260509071502 | 72 | 228 | 0.9 | 1.7 | 0.00 | 0.00 | 0.00 | 96 | 1010.9 |
| 20260509071002 | 72 | 232 | 0.0 | 0.9 | 0.00 | 0.00 | 0.00 | 96 | 1010.8 |
| 20260509070501 | 72 | 226 | 0.0 | 1.7 | 0.00 | 0.00 | 0.00 | 96 | 1010.9 |
| 20260509070001 | 72 | 0 | 0.9 | 1.7 | 0.00 | 0.00 | 0.00 | 96 | 1010.8 |
| 20260509065501 | 72 | 174 | 0.9 | 1.7 | 0.00 | 0.00 | 0.00 | 96 | 1010.4 |
| 20260509065002 | 72 | 234 | 0.0 | 1.7 | 0.00 | 0.00 | 0.00 | 96 | 1010.4 |
| 20260509064726 | 72 | 254 | 0.9 | 1.7 | 0.00 | 0.00 | 0.00 | 96 | 1010.5 |
| 20260509064002 | 72 | 147 | 0.9 | 1.7 | 0.00 | 0.00 | 0.00 | 96 | 1010.5 |
| 20260509063501 | 73 | 277 | 0.9 | 2.6 | 0.00 | 0.00 | 0.00 | 95 | 1010.7 |
| 20260509063002 | 73 | 220 | 0.9 | 3.5 | 0.00 | 0.00 | 0.00 | 95 | 1010.8 |
| 20260509062502 | 73 | 0 | 1.7 | 3.5 | 0.00 | 0.00 | 0.00 | 95 | 1010.4 |
| 20260509062001 | 73 | 155 | 1.7 | 3.5 | 0.00 | 0.00 | 0.00 | 94 | 1010.4 |
| 20260509061503 | 73 | 274 | 1.7 | 3.5 | 0.00 | 0.00 | 0.00 | 94 | 1010.3 |
| 20260509061003 | 73 | 277 | 0.9 | 2.6 | 0.00 | 0.00 | 0.00 | 94 | 1010.2 |
| 20260509060502 | 73 | 228 | 0.9 | 5.2 | 0.00 | 0.00 | 0.00 | 93 | 1010.2 |
| 20260509060000 | 73 | 257 | 1.7 | 5.2 | 0.00 | 0.00 | 0.00 | 93 | 1010.2 |
| 20260509055502 | 73 | 282 | 0.9 | 3.5 | 0.00 | 0.00 | 0.00 | 93 | 1010.3 |
| 20260509055001 | 73 | 260 | 1.7 | 4.3 | 0.00 | 0.00 | 0.00 | 93 | 1010.3 |
| 20260509054501 | 74 | 302 | 1.7 | 4.3 | 0.00 | 0.00 | 0.00 | 93 | 1010.0 |
| 20260509054002 | 74 | 138 | 1.7 | 3.5 | 0.00 | 0.00 | 0.00 | 92 | 1009.7 |
| 20260509053502 | 74 | 144 | 1.7 | 4.3 | 0.00 | 0.00 | 0.00 | 92 | 1009.5 |
| 20260509053003 | 74 | 160 | 0.9 | 4.3 | 0.00 | 0.00 | 0.00 | 92 | 1009.4 |
| 20260509052501 | 74 | 266 | 0.9 | 1.7 | 0.00 | 0.00 | 0.00 | 92 | 1009.3 |
| 20260509052001 | 74 | 229 | 0.9 | 4.3 | 0.00 | 0.00 | 0.00 | 92 | 1009.3 |
| 20260509051501 | 74 | 106 | 1.7 | 4.3 | 0.00 | 0.00 | 0.00 | 92 | 1009.3 |
| 20260509051245 | 74 | 147 | 1.7 | 4.3 | 0.00 | 0.00 | 0.00 | 91 | 1009.2 |
| 20260509050502 | 74 | 138 | 1.7 | 3.5 | 0.00 | 0.00 | 0.00 | 91 | 1009.1 |
| 20260509050002 | 74 | 169 | 0.9 | 2.6 | 0.00 | 0.00 | 0.00 | 91 | 1009.2 |
| 20260509045502 | 74 | 65 | 0.9 | 2.6 | 0.00 | 0.00 | 0.00 | 91 | 1009.3 |
| 20260509045004 | 74 | 22 | 0.9 | 3.5 | 0.00 | 0.00 | 0.00 | 91 | 1009.3 |
| 20260509044503 | 74 | 286 | 0.9 | 3.5 | 0.00 | 0.00 | 0.00 | 91 | 1009.4 |
| 20260509044003 | 74 | 253 | 1.7 | 2.6 | 0.00 | 0.00 | 0.00 | 90 | 1009.5 |
| 20260509043502 | 74 | 291 | 1.7 | 3.5 | 0.00 | 0.00 | 0.00 | 90 | 1009.5 |
| 20260509043002 | 74 | 158 | 0.9 | 3.5 | 0.00 | 0.00 | 0.00 | 90 | 1009.6 |
| 20260509042731 | 74 | 109 | 0.9 | 2.6 | 0.00 | 0.00 | 0.00 | 90 | 1009.6 |
| 20260509042002 | 74 | 124 | 0.9 | 2.6 | 0.00 | 0.00 | 0.00 | 90 | 1009.6 |
| 20260509041502 | 74 | 243 | 0.9 | 2.6 | 0.00 | 0.00 | 0.00 | 90 | 1009.7 |
| 20260509041002 | 74 | 190 | 0.9 | 2.6 | 0.00 | 0.00 | 0.00 | 91 | 1009.7 |
| 20260509040502 | 73 | 0 | 0.9 | 2.6 | 0.00 | 0.00 | 0.00 | 91 | 1009.8 |
| 20260509040002 | 73 | 336 | 0.9 | 2.6 | 0.00 | 0.00 | 0.00 | 91 | 1009.7 |
| 20260509035502 | 73 | 164 | 0.9 | 1.7 | 0.00 | 0.00 | 0.00 | 91 | 1009.8 |
| 20260509035002 | 73 | 113 | 0.0 | 1.7 | 0.00 | 0.00 | 0.00 | 91 | 1009.8 |
| 20260509034503 | 73 | 0 | 0.9 | 1.7 | 0.00 | 0.00 | 0.00 | 91 | 1009.7 |
| 20260509034002 | 73 | 263 | 0.9 | 2.6 | 0.00 | 0.00 | 0.00 | 91 | 1009.6 |
| 20260509033502 | 73 | 289 | 0.9 | 2.6 | 0.00 | 0.00 | 0.00 | 92 | 1009.4 |
| 20260509033003 | 73 | 173 | 0.9 | 2.6 | 0.00 | 0.00 | 0.00 | 92 | 1009.3 |
| 20260509032501 | 73 | 151 | 1.7 | 2.6 | 0.00 | 0.00 | 0.00 | 91 | 1009.2 |
| 20260509032001 | 73 | 185 | 0.9 | 2.6 | 0.00 | 0.00 | 0.00 | 91 | 1009.3 |
| 20260509031503 | 73 | 184 | 0.9 | 1.7 | 0.00 | 0.00 | 0.00 | 91 | 1009.3 |
| 20260509031003 | 73 | 299 | 0.9 | 3.5 | 0.00 | 0.00 | 0.00 | 91 | 1009.3 |
| 20260509030502 | 73 | 150 | 0.9 | 3.5 | 0.00 | 0.00 | 0.00 | 91 | 1009.1 |
| 20260509030002 | 73 | 104 | 0.9 | 2.6 | 0.00 | 0.00 | 0.00 | 90 | 1009.1 |
| 20260509025502 | 73 | 274 | 0.9 | 2.6 | 0.00 | 0.00 | 0.00 | 90 | 1009.2 |
| 20260509025002 | 73 | 184 | 0.0 | 1.7 | 0.00 | 0.00 | 0.00 | 90 | 1009.2 |
| 20260509024502 | 73 | 242 | 0.0 | 0.9 | 0.00 | 0.00 | 0.00 | 90 | 1009.2 |
| 20260509024003 | 74 | 0 | 0.0 | 0.0 | 0.00 | 0.00 | 0.00 | 89 | 1009.2 |
| 20260509023502 | 74 | 0 | 0.0 | 0.9 | 0.00 | 0.00 | 0.00 | 89 | 1009.2 |
| 20260509023002 | 74 | 0 | 0.0 | 1.7 | 0.00 | 0.00 | 0.00 | 89 | 1009.0 |
| 20260509022501 | 74 | 358 | 0.9 | 1.7 | 0.00 | 0.00 | 0.00 | 88 | 1009.0 |
| 20260509022002 | 74 | 205 | 0.9 | 3.5 | 0.00 | 0.00 | 0.00 | 88 | 1008.9 |
| 20260509021502 | 75 | 299 | 0.9 | 3.5 | 0.00 | 0.00 | 0.00 | 87 | 1008.8 |
| 20260509021218 | 75 | 305 | 0.9 | 3.5 | 0.00 | 0.00 | 0.00 | 87 | 1008.7 |
| 20260509020456 | 75 | 25 | 0.9 | 2.6 | 0.00 | 0.00 | 0.00 | 86 | 1008.7 |
| 20260509020451 | 75 | 62 | 1.7 | 3.5 | 0.00 | 0.00 | 0.00 | 86 | 1008.7 |
| 20260509015450 | 75 | 186 | 0.9 | 2.6 | 0.00 | 0.00 | 0.00 | 86 | 1008.7 |
| 20260509014950 | 76 | 145 | 0.9 | 2.6 | 0.00 | 0.00 | 0.00 | 86 | 1008.7 |
| 20260509014449 | 76 | 345 | 1.7 | 3.5 | 0.00 | 0.00 | 0.00 | 85 | 1008.6 |
| 20260509013949 | 76 | 145 | 1.7 | 3.5 | 0.00 | 0.00 | 0.00 | 85 | 1008.5 |
| 20260509013450 | 76 | 300 | 1.7 | 3.5 | 0.00 | 0.00 | 0.00 | 85 | 1008.4 |
| 20260509012952 | 76 | 106 | 1.7 | 3.5 | 0.00 | 0.00 | 0.00 | 84 | 1008.4 |
| 20260509012718 | 76 | 135 | 0.9 | 3.5 | 0.00 | 0.00 | 0.00 | 84 | 1008.4 |
| 20260509011952 | 76 | 223 | 1.7 | 3.5 | 0.00 | 0.00 | 0.00 | 84 | 1008.4 |
| 20260509011718 | 77 | 93 | 1.7 | 3.5 | 0.00 | 0.00 | 0.00 | 83 | 1008.4 |
| 20260509011659 | 76 | 266 | 1.7 | 3.5 | 0.00 | 0.00 | 0.00 | 83 | 1008.4 |
| 20260509010450 | 77 | 70 | 1.7 | 3.5 | 0.00 | 0.00 | 0.00 | 83 | 1008.5 |
| 20260509005950 | 77 | 356 | 1.7 | 3.5 | 0.00 | 0.00 | 0.00 | 83 | 1008.5 |
| 20260509005450 | 77 | 136 | 1.7 | 4.3 | 0.00 | 0.00 | 0.00 | 82 | 1008.4 |
| 20260509004950 | 77 | 358 | 1.7 | 4.3 | 0.00 | 0.00 | 0.00 | 82 | 1008.3 |
| 20260509004724 | 77 | 116 | 2.6 | 6.1 | 0.00 | 0.00 | 0.00 | 82 | 1008.3 |
| 20260509003948 | 77 | 86 | 2.6 | 6.1 | 0.00 | 0.00 | 0.00 | 82 | 1008.3 |
| 20260509003449 | 77 | 93 | 2.6 | 5.2 | 0.00 | 0.00 | 0.00 | 82 | 1008.4 |
| 20260509003219 | 77 | 86 | 1.7 | 4.3 | 0.00 | 0.00 | 0.00 | 82 | 1008.4 |
| 20260509002449 | 77 | 33 | 1.7 | 5.2 | 0.00 | 0.00 | 0.00 | 81 | 1008.4 |
| 20260509001948 | 77 | 59 | 1.7 | 5.2 | 0.00 | 0.00 | 0.00 | 81 | 1008.4 |
| 20260509001450 | 77 | 74 | 1.7 | 5.2 | 0.00 | 0.00 | 0.00 | 81 | 1008.4 |
| 20260509000940 | 77 | 106 | 2.6 | 5.2 | 0.00 | 0.00 | 0.00 | 81 | 1008.5 |
| 20260509000440 | 77 | 123 | 1.7 | 5.2 | 0.00 | 0.00 | 0.00 | 80 | 1008.5 |
| 20260508235940 | 77 | 307 | 2.6 | 6.1 | 0.00 | 0.00 | 0.00 | 80 | 1008.4 |
| 20260508235441 | 78 | 45 | 2.6 | 6.1 | 0.00 | 0.00 | 0.00 | 80 | 1008.5 |
| 20260508234937 | 78 | 358 | 1.7 | 3.5 | 0.00 | 0.00 | 0.00 | 80 | 1008.5 |
| 20260508234437 | 78 | 64 | 1.7 | 5.2 | 0.00 | 0.00 | 0.00 | 79 | 1008.5 |
| 20260508233935 | 78 | 28 | 1.7 | 5.2 | 0.00 | 0.00 | 0.00 | 79 | 1008.5 |
| 20260508233434 | 78 | 124 | 1.7 | 4.3 | 0.00 | 0.00 | 0.00 | 79 | 1008.5 |
| 20260508232933 | 78 | 71 | 1.7 | 4.3 | 0.00 | 0.00 | 0.00 | 79 | 1008.5 |
| 20260508232431 | 78 | 149 | 1.7 | 6.1 | 0.00 | 0.00 | 0.00 | 79 | 1008.5 |
| 20260508231932 | 78 | 43 | 1.7 | 6.1 | 0.00 | 0.00 | 0.00 | 79 | 1008.5 |
| 20260508231431 | 78 | 308 | 1.7 | 7.0 | 0.00 | 0.00 | 0.00 | 78 | 1008.5 |
| 20260508230932 | 78 | 61 | 1.7 | 7.0 | 0.00 | 0.00 | 0.00 | 78 | 1008.4 |
| 20260508230432 | 78 | 9 | 1.7 | 4.3 | 0.00 | 0.00 | 0.00 | 77 | 1008.5 |
| 20260508230214 | 78 | 0 | 1.7 | 5.2 | 0.00 | 0.00 | 0.00 | 78 | 1008.5 |
| 20260508225716 | 78 | 14 | 1.7 | 6.1 | 0.00 | 0.00 | 0.00 | 78 | 1008.4 |
| 20260508224931 | 78 | 72 | 1.7 | 6.1 | 0.00 | 0.00 | 0.00 | 78 | 1008.4 |
| 20260508224430 | 78 | 312 | 1.7 | 4.3 | 0.00 | 0.00 | 0.00 | 78 | 1008.4 |
| 20260508223929 | 78 | 193 | 1.7 | 4.3 | 0.00 | 0.00 | 0.00 | 78 | 1008.4 |
| 20260508223430 | 78 | 25 | 1.7 | 5.2 | 0.00 | 0.00 | 0.00 | 78 | 1008.4 |
| 20260508222929 | 78 | 11 | 1.7 | 5.2 | 0.00 | 0.00 | 0.00 | 78 | 1008.4 |
| 20260508222507 | 78 | 312 | 2.6 | 6.1 | 0.00 | 0.00 | 0.00 | 79 | 1008.5 |
| 20260508222454 | 78 | 36 | 1.7 | 6.1 | 0.00 | 0.00 | 0.00 | 79 | 1008.4 |
| 20260508221429 | 78 | 97 | 1.7 | 6.1 | 0.00 | 0.00 | 0.00 | 79 | 1008.5 |
| 20260508221002 | 78 | 83 | 1.7 | 7.0 | 0.00 | 0.00 | 0.00 | 79 | 1008.5 |
| 20260508220951 | 78 | 133 | 1.7 | 6.1 | 0.00 | 0.00 | 0.00 | 79 | 1008.5 |
| 20260508215929 | 78 | 58 | 1.7 | 7.0 | 0.00 | 0.00 | 0.00 | 79 | 1008.6 |
| 20260508215430 | 78 | 26 | 1.7 | 5.2 | 0.00 | 0.00 | 0.00 | 79 | 1008.6 |
| 20260508214928 | 78 | 52 | 1.7 | 5.2 | 0.00 | 0.00 | 0.00 | 79 | 1008.7 |
| 20260508214430 | 78 | 0 | 1.7 | 4.3 | 0.00 | 0.00 | 0.00 | 78 | 1008.7 |
| 20260508213930 | 78 | 350 | 1.7 | 5.2 | 0.00 | 0.00 | 0.00 | 77 | 1008.7 |
| 20260508213430 | 78 | 75 | 1.7 | 7.8 | 0.00 | 0.00 | 0.00 | 77 | 1008.7 |